Погода в Верхней Пеше

Россия / Ненецкий автономный округ     66°36′34″N   47°57′11″E
темп.,
°C
ветер,
м/с
пор.,
м/с
влажн.,
%
обл.,
%
осадки,
мм/ч
давл.,
гПа
погр.,
м
14 мая, пт
пт1400:00+13з33600 0.0 101420
03:00+10сз33690 0.0 101423
06:00+12с33645 0.0 1014200
09:00+16св22545 0.0 1014530
12:00+18св434856 0.0 1014818
15:00+19всв554699 0.0 10131074
18:00+15св91058100 0.0 1013693
21:00+10всв8116788 0.0 1015484
15 мая, сб
сб1500:00+8всв7973100 0.0 1015440
03:00+6всв81072100 0.0 1015396
06:00+5в81078100 0.4 1015446
09:00+4в71087100 4.1 1015426
12:00+4в6990100 3.6 1016415
15:00+5всв6788100 4.0 1016418
18:00+4в799082 0.0 1016368
21:00+3в6994100 0.0 1016343
16 мая, вс
вс1600:00+3в61097100 0.1 1016345
03:00+3в61096100 0.1 1015390
06:00+3в61087100 0.0 1016414
09:00+5в81074100 0.1 1015540
12:00+7в81062100 0.0 1014627
15:00+7в81057100 0.0 1014710
18:00+8всв7125899 0.0 1014666
21:00+7всв61257100 0.0 1014467
17 мая, пн
пн1700:00+3всв9155991 0.0 1014391
03:00+2всв8146483 0.0 1015338
06:00+4всв8125474 0.0 1016451
09:00+7всв894199 0.0 1016743
12:00+10всв673163 0.0 10171015
15:00+11всв552549 0.0 10181175
18:00+11всв55275 0.0 10191103
21:00+7всв484368 0.0 1020155
18 мая, вт
вт1800:00+5в48555 0.0 1021153
03:00+3вюв36625 0.0 1022113
06:00+6юв44497 0.0 1022280
09:00+11юв33355 0.0 1022716
12:00+14ююв33284 0.0 10211197
15:00+16ююз23270 0.0 10201499
18:00+17ююв12331 0.0 10191540
21:00+13юв454688 0.0 101970